CW3683 Weather Reports


Display with metric or nautical units.
time (UTC)temp
F
wind
direction
speed
MPH
gust
MPH
rain 1hr
in
rain 24hr
in
rain mn
in
humidity
%
barometer
mb
20260503234017 80 45 1.0 6.0 0.00 0.00 0.00 46 1009.8
20260503233016 80 68 1.0 6.0 0.00 0.00 0.00 45 1009.9
20260503232016 79 45 1.0 5.0 0.00 0.00 0.00 47 1010.0
20260503231036 79 45 2.0 5.0 0.00 0.00 0.00 47 1010.3
20260503230016 78 45 2.0 5.0 0.00 0.00 0.00 47 1010.4
20260503225016 78 45 4.0 9.0 0.00 0.00 0.00 49 1010.5
20260503224036 78 45 3.0 6.0 0.00 0.00 0.00 50 1010.8
20260503223036 78 68 1.0 5.0 0.00 0.00 0.00 50 1010.9
20260503222016 78 45 3.0 11.0 0.00 0.00 0.00 49 1011.0
20260503221056 78 68 2.0 5.0 0.00 0.00 0.00 49 1011.2
20260503220016 78 45 3.0 7.0 0.00 0.00 0.00 49 1011.2
20260503215016 79 45 3.0 9.0 0.00 0.00 0.00 48 1011.3
20260503214016 79 45 2.0 6.0 0.00 0.00 0.00 47 1011.3
20260503213016 79 45 3.0 8.0 0.00 0.00 0.00 47 1011.4
20260503212016 80 45 1.0 3.0 0.00 0.00 0.00 46 1011.5
20260503211016 79 45 1.0 4.0 0.00 0.00 0.00 49 1011.5
20260503210016 78 68 1.0 4.0 0.00 0.00 0.00 49 1011.7
20260503205016 78 45 1.0 4.0 0.00 0.00 0.00 50 1011.7
20260503204016 78 45 1.0 7.0 0.00 0.00 0.00 49 1011.8
20260503203016 78 45 1.0 3.0 0.00 0.00 0.00 48 1012.0
20260503202016 77 90 1.0 6.0 0.00 0.00 0.00 47 1011.9
20260503201016 76 45 2.0 6.0 0.00 0.00 0.00 49 1012.2
20260503200016 76 45 1.0 6.0 0.00 0.00 0.00 52 1012.3
20260503195016 75 68 3.0 9.0 0.00 0.00 0.00 51 1012.5
20260503194016 76 68 1.0 4.0 0.00 0.00 0.00 52 1012.7
20260503193016 75 45 2.0 6.0 0.00 0.00 0.00 52 1012.7
20260503192016 74 45 1.0 4.0 0.00 0.00 0.00 56 1012.8
20260503191016 73 45 3.0 8.0 0.00 0.00 0.00 55 1012.9
20260503190016 73 45 2.0 8.0 0.00 0.00 0.00 54 1013.0
20260503185036 73 45 1.0 6.0 0.00 0.00 0.00 55 1013.1
20260503184016 72 45 2.0 8.0 0.00 0.00 0.00 55 1013.2
20260503183015 72 68 2.0 6.0 0.00 0.00 0.00 57 1013.3
20260503182036 71 45 3.0 7.0 0.00 0.00 0.00 58 1013.3
20260503181016 71 45 3.0 7.0 0.00 0.00 0.00 57 1013.3
20260503180016 71 45 3.0 8.0 0.00 0.00 0.00 56 1013.3
20260503175015 71 68 2.0 6.0 0.00 0.00 0.00 58 1013.3
20260503174015 71 45 2.0 6.0 0.00 0.00 0.00 60 1013.4
20260503173016 71 45 2.0 5.0 0.00 0.00 0.00 59 1013.5
20260503172036 70 0.0 4.0 0.00 0.00 0.00 61 1013.4
20260503171016 69 23 1.0 4.0 0.00 0.00 0.00 63 1013.6
20260503131035 55 0.0 1.0 0.00 0.00 0.00 81 1013.5
20260503081016 58 0.0 0.0 0.00 0.00 0.00 70 1014.0
20260503072016 60 0.0 0.0 0.00 0.02 0.00 66 1013.8
20260503071016 61 0.0 1.0 0.00 0.02 0.00 65 1013.8
20260503070117 61 0.0 1.0 0.00 0.02 0.02 64 1013.7
20260503055015 62 0.0 0.0 0.00 0.02 0.02 62 1013.8
20260503054015 63 0.0 1.0 0.00 0.02 0.02 62 1013.8
20260503053035 63 0.0 1.0 0.00 0.02 0.02 61 1013.7
20260503052015 63 0.0 1.0 0.00 0.02 0.02 61 1013.9
20260503051015 63 0.0 2.0 0.00 0.02 0.02 61 1013.8
20260503050015 63 0.0 2.0 0.00 0.02 0.02 62 1013.8
20260503045015 63 0.0 0.0 0.00 0.02 0.02 62 1013.7
20260503044035 64 0.0 0.0 0.00 0.02 0.02 61 1013.6
20260503043015 64 0.0 1.0 0.00 0.02 0.02 59 1013.6
20260503042015 65 0.0 3.0 0.00 0.02 0.02 58 1013.4
20260503041015 65 0.0 3.0 0.00 0.02 0.02 59 1013.3
20260503040015 65 68 1.0 3.0 0.00 0.02 0.02 59 1013.2
20260503035015 65 0.0 2.0 0.00 0.02 0.02 60 1013.1
20260503034015 65 68 1.0 5.0 0.00 0.02 0.02 61 1013.0
20260503033035 65 0.0 1.0 0.00 0.02 0.02 63 1012.9
20260503032015 66 0.0 1.0 0.00 0.02 0.02 62 1012.7
20260503031015 66 0.0 0.0 0.00 0.02 0.02 61 1012.7
20260503030017 67 0.0 1.0 0.00 0.02 0.02 60 1012.5
20260503025017 68 45 1.0 3.0 0.00 0.02 0.02 60 1012.5
20260503024017 68 0.0 4.0 0.00 0.02 0.02 60 1012.5
20260503023017 68 45 2.0 7.0 0.00 0.02 0.02 59 1012.6
20260503022017 69 45 1.0 4.0 0.00 0.02 0.02 59 1012.5
20260503021016 70 45 2.0 7.0 0.00 0.02 0.02 60 1012.3
20260503020017 70 45 1.0 5.0 0.00 0.02 0.02 60 1012.4
20260503015017 70 68 2.0 5.0 0.00 0.02 0.02 60 1012.5
20260503014016 70 45 4.0 10.0 0.00 0.02 0.02 60 1012.5
20260503013017 71 45 2.0 7.0 0.00 0.02 0.02 60 1012.6
20260503012016 71 45 2.0 5.0 0.00 0.02 0.02 60 1012.6
20260503011017 71 45 1.0 5.0 0.00 0.02 0.02 59 1012.6
20260503010017 72 45 1.0 7.0 0.00 0.02 0.02 59 1012.6
20260503005016 72 45 2.0 6.0 0.00 0.02 0.02 59 1012.7
20260503004037 72 45 3.0 8.0 0.00 0.02 0.02 59 1012.9
20260503003017 72 45 3.0 11.0 0.00 0.02 0.02 58 1012.8
20260503002017 72 45 2.0 7.0 0.00 0.02 0.02 59 1012.8
20260503001016 72 45 2.0 6.0 0.00 0.02 0.02 59 1012.9
20260503000016 73 45 2.0 7.0 0.00 0.02 0.02 57 1012.9
20260502235037 73 45 2.0 7.0 0.00 0.02 0.02 55 1013.0